Location: Ameryka
(50.1667°N, 18.6833°E)
Time: 06:28:02
(UTC+00:00)

Daily predictions for brighter satellites

Satellite Brightness Start Highest point End
(mag) Time Altitude Azimuth Time Altitude Azimuth Time Altitude Azimuth
BREEZE-M DEB (TANK) 4.4 18:35:39 10° W 18:40:28 72° SSW 18:59:48 10° ESE
Sich 1 4.4 18:59:32 10° NNW 19:03:37 40° W 19:07:43 10° SSW
Cosmos 1354 Rocket 4.4 18:58:41 10° SSW 19:03:55 70° WNW 19:09:12 10° NNE
SJ 16-02 2.0 19:02:34 10° S 19:06:36 36° ESE 19:10:41 10° NE
Resurs 1-3 4.0 19:04:49 10° S 19:09:09 64° WSW 19:13:33 10° NNW
CREW DRAGON DEMO-1 DEB 4.2 19:09:27 10° W 19:11:37 22° SSW 19:13:45 10° SSE
ARIANE 5 R/B 3.6 19:10:01 10° SE 19:13:53 33° ENE 19:17:48 10° N
Cosmos 1536 4.4 19:10:50 10° NNE 19:14:01 22° ENE 19:17:10 10° ESE
USA 306 3.6 19:10:02 10° WNW 19:14:06 45° SW 19:18:09 10° SE
CZ-4C R/B 3.4 19:08:02 10° NW 19:15:06 60° SW 19:23:15 10° SSE
Cosmos 44 4.2 19:10:34 10° NW 19:15:53 49° NE 19:21:01 10° ESE
Cosmos 1151 Rocket 3.2 19:11:46 10° SSW 19:16:08 78° W 19:20:34 10° N
CRYOSAT 2 4.5 19:11:27 10° SSE 19:16:16 66° E 19:21:08 10° N
Cosmos 1943 Rocket 3.9 19:14:27 10° SE 19:17:04 13° E 19:19:41 10° ENE
Cosmos 1709 Rocket 4.4 19:13:44 10° NNW 19:19:47 66° W 19:25:50 10° S
IGS 5A 3.5 19:15:51 10° SSE 19:20:00 88° ENE 19:24:11 10° NNW
COSMOS 2406 3.5 19:14:43 10° NNW 19:20:22 66° WSW 19:25:58 10° SSE
Meteor 1-26 Rocket 4.5 19:15:30 10° SSW 19:21:05 75° WNW 19:26:35 10° N
SPOT 1/Viking Rocket 3.7 19:18:56 10° SSE 19:24:04 63° ENE 19:29:11 10° N
USA 245 3.0 19:22:21 13° SE 19:24:07 32° ENE 19:26:22 10° N
Cosmos 2278 Rocket 2.2 19:22:32 10° SSW 19:28:10 75° ESE 19:33:49 10° NNE
Cosmos 1271 Rocket 3.3 19:24:31 10° SSE 19:28:17 41° E 19:32:04 10° NNE
ATLAS 5 CENTAUR R/B 4.4 19:25:38 10° WNW 19:29:45 20° WSW 19:34:16 10° SSW
Cosmos 2074 Rocket 4.1 19:23:44 10° N 19:30:01 64° ENE 19:36:16 10° SSE
Cosmos 2184 Rocket 4.1 19:23:52 10° N 19:30:02 62° ENE 19:36:08 10° SSE
Terra 3.1 19:29:06 10° ESE 19:33:03 28° ENE 19:37:07 10° N
Cosmos 1538 Rocket 4.4 19:28:16 10° NNW 19:33:36 65° WSW 19:38:50 10° S
ERS-1 Rocket 3.7 19:29:38 11° SE 19:34:04 41° ENE 19:38:46 10° N
Spot 2 Rocket 3.6 19:32:34 11° SSE 19:37:22 62° ENE 19:42:22 10° N
SWARM C 4.5 19:34:14 10° N 19:37:35 89° SW 19:40:54 10° S
SWARM A 4.2 19:34:21 10° N 19:37:41 87° W 19:41:01 10° S
SPOT 3 Rocket 3.9 19:35:01 10° S 19:40:07 64° WSW 19:45:15 10° NNW
Meteor 2-6 Rocket 4.1 19:35:27 10° S 19:40:53 77° E 19:46:31 10° NNE
Cosmos 1437 4.2 19:38:37 10° SW 19:41:15 34° WNW 19:43:54 10° N
USA 307 4.1 19:38:30 10° WNW 19:42:18 32° SW 19:45:35 13° SSE
Cosmos 1666 2.8 19:44:26 10° NNW 19:48:10 72° W 19:51:45 11° S
Cosmos 1680 Rocket 3.7 19:43:01 10° NNW 19:48:20 64° ENE 19:52:40 15° SE
Cosmos 1544 4.0 19:47:28 10° N 19:50:48 33° ENE 19:53:00 18° SE
Cosmos 1812 3.2 19:49:58 10° SSW 19:53:46 60° WNW 19:57:36 10° N
Tianhe-1 3.2 19:52:18 10° SSW 19:53:06 12° S 19:53:06 12° S
Meteor 1-27 Rocket 4.1 19:49:21 10° SSE 19:54:59 51° E 20:00:44 10° NNE
USA 308 4.4 19:52:26 10° W 19:56:01 26° SW 19:58:53 14° S
Cosmos 1833 Rocket 3.9 19:51:44 10° NW 19:56:52 36° WSW 20:01:57 10° S
SPOT 5 3.2 19:54:07 15° SSE 19:58:20 63° ENE 20:03:38 10° N
ERBS 2.6 19:55:13 10° NW 19:58:30 60° NNE 20:00:55 17° ESE
Cosmos 2228 Rocket 3.1 19:57:29 11° S 20:01:38 64° E 20:06:05 10° NNE
Resurs 01 Rocket 3.2 19:59:42 10° SSW 20:03:42 32° W 20:07:43 10° NNW
Cosmos 1515 Rocket 4.2 19:59:58 10° SSW 20:04:17 56° WNW 20:08:36 10° N
BREEZE-M DEB (TANK) 3.7 19:56:31 10° W 20:06:48 74° NNW 20:09:47 10° ENE
H-2A R/B 4.4 20:03:27 10° NNE 20:07:11 30° E 20:09:07 21° SE
BREEZE-M DEB (TANK) 1.3 20:05:37 10° W 20:07:36 48° SSW 20:08:22 30° SE
ISS -3.3 20:05:04 10° SW 20:08:11 37° SSE 20:11:20 10° E
Cosmos 1869 Rocket 3.5 20:04:00 10° N 20:08:22 83° E 20:11:31 18° SSE
NOSS 3-4 (A) 4.4 20:05:23 10° NW 20:12:06 51° WSW 20:18:18 15° SSE
NOSS 3-4 (C) 4.4 20:05:29 10° NW 20:12:13 52° WSW 20:18:24 15° SSE
CZ-2C R/B 4.2 20:08:17 10° N 20:12:45 63° WNW 20:17:17 10° SSW
Cosmos 1461 4.1 20:11:09 20° SSE 20:13:16 27° ESE 20:17:11 10° ENE
Cosmos 1238 Rocket 4.4 20:08:08 10° N 20:13:45 39° ENE 20:17:01 19° SE
Gbstr 26 Del rocket 4.2 20:07:36 10° WNW 20:15:23 79° SSW 20:20:50 16° ESE
Cosmos 1743 3.1 20:12:19 10° N 20:16:07 49° ENE 20:18:06 24° SE
SL-24 R/B - RUBIN 2 4.0 20:12:21 10° NW 20:17:54 73° SW 20:21:06 22° SSE
SL-24 DEB 4.3 20:16:07 21° SSE 20:19:08 63° E 20:23:43 10° N
Iridium 4 Rocket 4.1 20:17:04 10° SSW 20:22:54 68° W 20:28:49 10° N
Meteor 1-11 Rocket 4.1 20:17:26 10° NNW 20:23:21 66° W 20:28:21 14° S
Cosmos 1898 Rocket 3.6 20:18:59 11° S 20:23:56 61° ESE 20:29:12 10° NNE
Cosmos 990 Rocket 3.9 20:19:07 10° SSW 20:24:20 74° ESE 20:29:37 10° NNE
Cosmos 2341 Rocket 4.3 20:18:23 10° N 20:24:44 59° ENE 20:29:01 21° SSE
ATLAS 2AS CENTAUR R/B 2.9 20:18:18 10° NW 20:25:38 66° SW 20:30:28 21° SSE
Cosmos 1818 3.6 20:20:11 10° NW 20:25:43 90° WSW 20:29:16 23° SE
USA 215 4.2 20:20:51 10° ENE 20:27:05 49° N 20:33:19 10° WNW
Cosmos 1707 Rocket 3.8 20:25:13 24° SSE 20:27:39 51° E 20:31:58 10° NNE
DNEPR-1 R/B 4.3 20:22:33 10° SSW 20:28:17 49° ESE 20:33:04 10° NE
Cosmos 1340 Rocket 2.8 20:24:31 10° NNW 20:28:37 87° E 20:30:52 26° SSE
CARTOSAT-1 4.2 20:25:51 16° S 20:29:06 52° W 20:33:20 10° NNW
Cosmos 2297 3.7 20:26:09 10° SSW 20:31:46 63° ESE 20:37:23 10° NE
Okean 1 4.1 20:31:05 27° SE 20:32:27 35° E 20:36:05 10° NNE
CZ-4B DEB 4.2 20:34:14 34° SSE 20:35:30 89° WSW 20:38:44 10° NNW
BREEZE-M R/B 1.7 20:42:27 10° W 20:44:52 73° S 20:45:26 50° ESE
SJ 16-02 3.3 20:41:18 10° WSW 20:45:14 30° WNW 20:49:12 10° N
Cosmos 2082 Rocket 3.6 20:40:41 10° NW 20:45:28 29° WSW 20:49:37 13° SSW
SL-8 Rocket 4.1 20:41:48 10° N 20:48:07 67° ENE 20:51:54 25° SSE
ARIANE 5 R/B 4.0 20:47:09 13° SSW 20:50:21 31° W 20:54:14 10° NNW
Cosmos 1536 3.9 20:46:48 10° NNW 20:50:35 39° W 20:53:04 18° SSW
Cosmos 2084 Rocket 4.0 20:47:18 10° NW 20:51:25 47° SW 20:53:10 30° S
ALOS 2 4.5 20:49:31 14° E 20:51:49 20° ENE 20:55:01 10° NNE
Cosmos 1733 Rocket 2.9 20:49:48 10° N 20:54:09 84° E 20:56:03 33° SSE
Cosmos 44 4.4 20:52:05 10° NW 20:57:06 39° WSW 20:59:42 24° S
Cosmos 1515 3.5 20:56:13 37° S 20:57:38 78° E 21:01:26 10° NNE
Cosmos 1943 Rocket 2.1 20:55:14 16° SSW 20:59:52 76° ESE 21:05:28 10° NNE
Cosmos 1975 2.9 21:04:06 10° N 21:08:04 63° ENE 21:09:15 41° SE
Terra 2.6 21:07:58 22° SSW 21:10:38 43° W 21:15:12 10° NNW
Cosmos 1656 Rocket 4.4 21:10:17 30° SE 21:11:46 35° ESE 21:16:45 10° NE
Cosmos 44 Rocket 4.3 21:07:17 10° NNW 21:12:20 45° NE 21:15:54 18° ESE
Cosmos 2278 Rocket 4.4 21:08:07 10° W 21:12:50 26° NW 21:17:36 10° NNE
ERS-1 Rocket 4.3 21:09:37 16° SSW 21:12:57 32° W 21:17:28 10° NNW
Cosmos 1908 Rocket 4.0 21:08:37 10° N 21:13:01 52° ENE 21:14:34 35° SE
Cosmos 864 Rocket 4.4 21:07:32 10° N 21:13:44 80° E 21:16:57 30° SSE
Meteor 1-18 Rocket 4.2 21:11:32 30° S 21:14:23 69° E 21:19:55 10° NNE
Cosmos 1959 Rocket 4.4 21:10:05 10° N 21:16:21 86° E 21:19:35 30° SSE
Cosmos 2369 Rocket 2.3 21:14:38 30° S 21:17:21 59° ESE 21:22:54 10° NE
RESURS DK-1 2.5 21:14:04 10° NNW 21:18:14 67° ENE 21:19:39 39° SE
Cosmos 1937 Rocket 3.7 21:15:45 14° SW 21:20:05 67° WNW 21:25:18 10° NNE
Cosmos 1867 3.8 21:19:57 33° S 21:21:50 47° ESE 21:27:05 10° NE
Cosmos 2242 Rocket 4.2 21:22:05 35° SE 21:23:07 41° E 21:27:20 10° NNE
Meteor 2-9 Rocket 4.4 21:24:20 10° NNW 21:30:03 66° W 21:32:47 31° S
ERBS 4.0 21:31:41 10° WNW 21:33:40 21° WSW 21:33:40 21° WSW
Cosmos 1048 Rocket 4.0 21:31:44 10° NNW 21:37:05 86° ENE 21:39:10 38° SSE
Cosmos 1862 Rocket 4.1 21:41:00 28° SW 21:42:58 52° WNW 21:47:13 10° N
Cosmos 1703 Rocket 3.7 21:43:10 47° SSE 21:44:11 62° E 21:48:34 10° NNE
ISS -3.7 21:41:29 10° W 21:44:52 77° N 21:48:16 10° ENE
Okean 1-7 3.1 21:44:04 48° SE 21:44:56 60° E 21:49:12 10° NNE
Cosmos 1782 Rocket 3.7 21:41:00 10° N 21:45:26 62° ENE 21:46:37 44° SE
Spot 4 3.8 21:43:53 42° S 21:45:35 85° WSW 21:50:29 10° NNW
Cosmos 1821 Rocket 4.1 21:43:06 10° N 21:49:32 72° ENE 21:52:29 34° SSE
Cosmos 2366 rocket 4.3 21:44:13 10° NNW 21:50:15 57° W 21:53:25 28° SSW
Cosmos 1461 3.8 21:47:31 10° WSW 21:52:08 55° NW 21:56:40 10° NE
Cosmos 2181 Rocket 4.3 21:48:58 23° SSW 21:52:49 60° WNW 21:58:53 10° N
Cosmos 2263 4.2 21:50:11 32° SSW 21:52:56 78° ESE 21:58:46 10° NNE
Cosmos 1805 4.5 21:50:14 10° N 21:53:44 31° ENE 21:54:35 28° E
Cosmos 1607 4.0 21:50:11 26° SSW 21:54:01 74° SE 22:00:31 10° NE
NOSS 2-1 (E) 4.4 21:49:55 10° NW 21:54:34 64° NE 21:58:47 21° ESE
SeaSat 1 4.5 21:53:09 10° ENE 21:55:22 13° E 21:55:36 13° ESE
SL-27 R/B 2.2 21:53:43 10° NNW 21:57:03 82° WSW 21:57:03 82° WSW
BREEZE-M DEB (TANK) 4.3 21:46:45 10° WNW 22:02:15 58° SW 22:04:22 36° SSE
Cosmos 2227 Rocket 4.3 21:59:50 10° NNW 22:04:13 22° NE 22:08:33 10° E
Cosmos 2298 Rocket 3.9 22:02:51 39° SSW 22:04:53 83° ESE 22:10:13 10° NNE
Meteor 2-4 Rocket 3.8 22:02:15 33° SSW 22:04:56 75° WNW 22:10:31 10° N
Thor Agena Rocket 4.4 22:00:36 10° NNE 22:05:27 36° E 22:06:50 31° SE
Lacrosse 5 2.9 22:07:06 29° ESE 22:07:06 29° ESE 22:11:01 10° ENE
Cosmos 2297 Rocket 4.0 22:02:03 10° NNW 22:06:50 27° NE 22:11:35 10° E
ATLAS CENTAUR R/B 0.9 22:08:52 75° S 22:09:03 79° SE 22:12:53 10° NE
Cosmos 1378 3.1 22:08:57 62° ESE 22:09:08 63° E 22:12:49 10° NNE
USA 215 3.6 22:03:11 10° E 22:09:39 65° NNE 22:16:07 10° WNW
Cosmos 1766 4.4 22:07:02 10° N 22:10:39 33° ENE 22:11:31 29° E
Cosmos 494 Rocket 4.1 22:13:51 10° NNW 22:18:57 59° WSW 22:20:23 43° SSW
Cosmos 2221 Rocket 4.5 22:18:09 34° ESE 22:19:04 37° E 22:23:16 10° NNE
ALOS 2 2.8 22:26:55 47° SW 22:27:46 57° W 22:32:07 10° NNW
Meteor 1-13 Rocket 4.1 22:28:18 41° SSW 22:30:22 87° WNW 22:35:56 10° NNE
Cosmos 2150 Rocket 4.2 22:30:06 32° SW 22:32:35 67° WNW 22:37:51 10° NNE
COBE Rocket 4.1 22:34:04 43° SSW 22:35:35 64° W 22:40:46 10° NNW
Nadezhda 3 Rocket 4.0 22:33:55 34° SSW 22:36:44 73° W 22:42:58 10° N
NOSS 2-1 (C) 4.2 22:36:09 10° NW 22:40:55 66° SW 22:43:17 37° SSE
Nimbus 7 Rocket 4.3 22:37:05 10° NNE 22:43:01 87° ESE 22:45:27 38° SSW
Cosmos 1125 Rocket 3.7 22:40:55 34° SW 22:43:09 67° WNW 22:48:22 10° NNE
Cosmos 1943 Rocket 4.1 22:39:34 10° W 22:44:13 26° NW 22:48:50 10° NNE
Okean 3 3.7 22:44:16 48° SW 22:45:11 61° WNW 22:49:23 10° N
Cosmos 1842 4.3 22:44:51 32° ESE 22:45:15 32° E 22:48:45 10° NNE
Cosmos 724 4.3 22:43:33 35° SSW 22:46:23 81° SE 22:52:40 10° NE
Cosmos 1300 Rocket 3.5 22:42:02 10° NNW 22:46:26 75° W 22:47:15 56° SSW
MTI 4.4 22:44:39 10° N 22:47:22 47° NW 22:47:22 47° NW
NOSS 2-1 (D) 4.3 22:43:02 10° NW 22:47:48 60° SW 22:49:56 39° S
Cosmos 1400 Rocket 3.3 22:47:30 10° N 22:51:32 52° ENE 22:52:28 42° ESE
Aureole 2 4.4 22:49:22 10° NNW 22:52:04 68° NNW 22:52:04 68° NNW
Sich 1 Rocket 3.9 22:49:14 10° NNW 22:53:43 57° W 22:54:37 47° SW
COSMOS 2487 2.5 22:50:26 10° NNW 22:53:31 61° WNW 22:53:31 61° WNW
Cosmos 44 Rocket 3.9 22:49:00 10° NW 22:53:54 41° WSW 22:54:36 39° SW
Cosmos 2219 4.2 22:49:05 10° NNW 22:54:33 44° NE 22:59:30 12° ESE
Cosmos 1356 Rocket 4.4 22:51:06 10° NNW 22:55:02 35° W 22:55:40 33° WSW
Cosmos 1656 Rocket 4.5 22:51:36 19° WSW 22:55:13 46° NW 23:00:36 10° NNE
Cosmos 1605 Rocket 4.0 22:49:19 10° N 22:55:38 80° E 22:58:32 35° SSE
RESURS DK-1 4.4 22:53:14 10° WNW 22:55:31 16° W 22:55:31 16° W
Cosmos 2344 4.4 22:50:04 10° NW 22:59:11 61° WSW 23:07:10 25° SSE
Cosmos 1733 3.2 22:55:49 10° NNW 22:59:35 62° W 22:59:48 60° WSW
Helios 1A 4.2 22:57:55 24° ESE 22:59:42 36° ENE 23:03:31 10° N
Cosmos 2369 Rocket 3.7 22:56:44 10° WSW 23:01:44 32° NW 23:06:47 10° NNE
CZ-2D R/B 4.3 22:58:49 10° NE 23:01:57 15° E 23:04:50 11° ESE
EO 1 Del DPAF 3.4 22:58:41 10° NNE 23:02:21 53° E 23:02:37 51° ESE
Resurs 1-4 Rocket 4.2 22:59:19 10° NE 23:02:26 16° E 23:05:12 11° ESE
Okean 2 Rocket 3.2 23:02:41 10° NNW 23:07:00 58° W 23:07:49 49° SW
Cosmos 2151 Rocket 3.6 23:04:18 10° NNW 23:08:49 72° W 23:09:48 52° SSW
PSLV R/B 3.5 23:04:31 10° NNE 23:08:53 74° ESE 23:09:45 54° S
Meteor 1-22 Rocket 4.3 23:04:20 10° NNW 23:10:25 86° W 23:13:02 37° S
Cosmos 1707 4.1 23:11:53 26° ESE 23:12:37 28° E 23:15:55 10° NNE
COSMOS 2455 2.8 23:08:58 10° NW 23:15:02 87° SW 23:18:25 28° SSE
Timation 2 Rocket 4.3 23:10:03 10° NNW 23:15:59 61° NE 23:21:04 14° SE
Okean 2 3.7 23:19:49 46° SE 23:20:41 56° E 23:24:47 10° NNE
ISS -3.6 23:18:27 10° WNW 23:21:50 73° N 23:25:13 10° E
CZ-4 R/B 4.5 23:20:20 10° NNE 23:24:58 45° E 23:26:33 33° SE
Cosmos 1697 Rocket 4.3 23:23:49 17° SE 23:26:05 22° ESE 23:30:17 10° NE
USA 81 4.2 23:21:05 10° NNW 23:26:20 64° W 23:28:08 40° SSW
Cosmos 614 Rocket 4.5 23:24:39 10° NNW 23:29:41 56° ENE 23:33:10 20° SE
SeaSat 1 2.4 23:28:41 10° NNE 23:33:39 76° ESE 23:35:22 41° SSW
Cosmos 2100 Rocket 4.2 23:30:48 10° N 23:37:06 69° ENE 23:41:03 24° SSE
Cosmos 1378 Rocket 3.5 23:37:38 49° SSW 23:38:43 77° W 23:43:04 10° N
Cosmos 1975 Rocket 4.2 23:37:07 25° SE 23:38:46 34° E 23:42:42 10° NNE
Cosmos 1980 Rocket 4.3 23:36:36 10° SE 23:39:46 15° E 23:42:55 10° ENE
YAOGAN 11 3.9 23:39:07 46° S 23:40:23 84° WSW 23:44:43 10° NNW
Cosmos 2251 Rocket 3.5 23:35:43 10° NNW 23:41:00 86° ENE 23:43:44 29° SSE
Cosmos 1802 Rocket 4.4 23:35:29 10° N 23:41:33 56° ENE 23:45:55 19° SSE
Cosmos 1726 2.0 23:39:56 10° NNW 23:43:38 76° W 23:44:07 63° SSW
Meteor 2-20 4.4 23:45:25 33° SSW 23:48:21 79° WNW 23:54:32 10° N
ATLAS CENTAUR R/B 3.5 23:45:32 10° W 23:48:24 20° NNW 23:51:23 10° NNE
Cosmos 2227 Rocket 2.2 23:43:24 10° NNW 23:49:06 86° ENE 23:53:01 21° SSE
Lacrosse 5 1.9 23:46:15 25° WSW 23:49:15 77° NNW 23:54:23 10° ENE
MOZ.5/SAFIR/RUBIN 5/SL-8 3.8 23:48:39 32° SSE 23:50:48 79° ENE 23:55:28 10° NNW
Cosmos 2297 Rocket 2.1 23:45:47 10° NNW 23:51:28 74° WSW 23:54:30 28° SSE
USA 281 3.3 23:46:45 14° SE 23:52:31 82° ENE 23:59:08 10° NNW
USA 215 3.2 23:46:17 10° SE 23:52:44 61° SW 23:59:13 10° WNW
Helios 1B rocket 3.9 23:49:51 10° NE 23:53:28 28° E 23:55:14 21° SE
Cosmos 1953 3.1 23:49:50 10° N 23:53:42 46° ENE 23:55:43 24° SE
Cosmos 1674 3.9 23:55:02 26° SE 23:56:24 35° E 23:59:55 10° NNE
